Regional Weather Roundup
Issued by NWS

Home | Current Version | Previous Version | Graphics & Text | Print | Product List | Glossary On
Versions: 1 2 3 4 5 6 7 8 9 10 11 12 13 14 15 16 17 18 19 20 21 22 23 24 25 26 27 28 29 30 31 32 33 34 35 36 37 38 39 40 41 42 43 44 45 46 47 48 49 50
368
ASUS45 KBOU 190307
RWRCO

WEATHER ROUNDUP FOR COLORADO
NATIONAL WEATHER SERVICE DENVER/BOULDER CO
800 PM MST WED JAN 18 2017

NOTE: "FAIR" INDICATES FEW OR NO CLOUDS BELOW 12000 FEET WITH NO
SIGNIFICANT WEATHER AND/OR OBSTRUCTIONS TO VISIBILITY.

COZ001>005-013-030-031-190400-
...NORTHWEST COLORADO...

CITY           SKY/WX    TMP DP  RH WIND       PRES   REMARKS
CRAIG          FAIR       9   3  77 W3        29.98R
HAYDEN         FAIR      18  10  73 CALM      29.95R
MEEKER         FAIR      16  13  88 CALM      29.97R
MOUNT WERNER   NOT AVBL
STEAMBOAT SPGS FAIR      15  12  85 CALM      29.94S
WALDEN           N/A     -2  -8  78 CALM      29.92F
$$

COZ006>008-011-190400-
...WEST CENTRAL VALLEYS...

CITY           SKY/WX    TMP DP  RH WIND       PRES   REMARKS
GRAND JUNCTION FAIR      30  29  96 CALM      30.00R
MONTROSE       FAIR      31  26  82 SE7       30.01R WCI  24
EAGLE          CLEAR     21  16  79 SE3       29.99F
RIFLE          FAIR      30  24  78 CALM      29.98R
DELTA          FAIR      35  30  81 CALM      30.00R
NUCLA          MOCLDY    32  27  80 E6        30.04S WCI  26
$$

COZ017>023-064>068-190400-
...SOUTHWEST COLORADO...

CITY           SKY/WX    TMP DP  RH WIND       PRES   REMARKS
DURANGO        FAIR      31  24  75 SW7       30.00S WCI  24
CORTEZ         FAIR      28  27  96 E7        30.02S WCI  21
PAGOSA SPRINGS CLOUDY    32  31  94 CALM      30.00S
TELLURIDE      NOT AVBL
WOLF CREEK PAS CLOUDY    14  14 100 SW12G17   30.02S WCI   0
$$

COZ009-010-012-014-032>034-037-058>063-190400-
...CENTRAL COLORADO...

CITY           SKY/WX    TMP DP  RH WIND       PRES   REMARKS
ASPEN          FAIR      15  10  80 S6        29.95F WCI   6
BUENA VISTA    FAIR      10   6  81 W6        29.90S WCI   1
COPPER MTN     FAIR      23   9  54 W6        29.96S WCI  16
BERTHOUD PASS  NOT AVBL
COTTONWOOD PAS FAIR      32  14  47 NW7       29.90S WCI  26
GUNNISON       FAIR       8   5  87 CALM      30.03S
KREMMLING      FAIR      14  10  85 CALM      29.99F
LEADVILLE      FAIR      18  10  71 N8        29.91F WCI   8
MONARCH PASS   FAIR      14  10  85 MISG      30.05F
SALIDA         FAIR      29  19  66 SE6       29.95F WCI  23
SUNLIGHT       FAIR      18  14  86 SW10      30.00F WCI   6
WILKERSON PASS FAIR      28   3  34 W9        29.91F WCI  20
$$

COZ069>075-190400-
...SAN LUIS VALLEY/SANGRE DE CRISTO MOUNTAINS...

CITY           SKY/WX    TMP DP  RH WIND       PRES   REMARKS
ALAMOSA        CLOUDY    25  22  88 CALM      29.98S
LA VETA PASS   LGT SNOW  18  16  93 NE36G44   29.87F VSB 1   WCI  -3
SAGUACHE       FAIR      16  14  93 N7        29.98F WCI   6
$$

COZ035-036-038>040-190400-
...NORTHERN COLORADO FRONT RANGE...

CITY           SKY/WX    TMP DP  RH WIND       PRES   REMARKS
DENVER INTL AP FAIR      36  18  48 S7        29.72F
DMNS CITY PARK   N/A     37  18  45 E7        29.72F
AURORA         PTCLDY    32  17  54 S8        29.73F WCI  25
FRONT RANGE AP PTCLDY    30  21  69 S7        29.73F WCI  23
ERIE MUNI ARPT FAIR      27  21  78 CALM      29.72F
BOULDER MUN AP FAIR      36  19  51 N3        29.71F
CENTENNIAL     FAIR      37  15  40 CALM      29.73F
BROOMFIELD     CLEAR     39  12  33 CALM      29.72F
FORT COLLINS   FAIR      36  21  55 N3        29.72F
LONGMONT       FAIR      32  20  60 W3        29.74S
$$

COZ041-046-047-076>085-087-088-190400-
...PIKES PEAK/PALMER DIVIDE AND SOUTHERN FOOTHILLS...

CITY           SKY/WX    TMP DP  RH WIND       PRES   REMARKS
COLO. SPRINGS  FAIR      28  20  71 N7        29.75F WCI  21
A. F. ACADEMY  FAIR      25  16  69 N9        29.74F WCI  16
SCHRIEVER AFB  NOT AVBL
ELLICOTT       FAIR     N/A N/A N/A NE3       29.73F
FALCON         FAIR      29  19  66 N3        29.76F
FORT CARSON    CLEAR     36  21  55 W7        29.75F
LIMON          FAIR      19  17  92 NW3       29.73F
MONUMENT HILL  FAIR      30  16  55 SW7       29.77F WCI  23
TRINIDAD       FAIR      34  22  61 W10       29.75F WCI  26
$$

COZ042>045-048>051-090-091-190400-
...NORTHEAST COLORADO...

CITY           SKY/WX    TMP DP  RH WIND       PRES   REMARKS
GREELEY ARPT   FAIR      28  26  92 N3        29.73F
AKRON          FAIR      32  16  51 S7        29.72F WCI  26
BURLINGTON     FAIR      34  31  88 S9        29.74F WCI  27
WRAY           FAIR      28  27  93 W6        29.74F WCI  22
STERLING       FAIR      30  27  86 CALM      29.71F
HOLYOKE        FAIR      28  27  93 W9        29.73F WCI  20
FORT MORGAN    FAIR      36  24  63 CALM      29.73F
$$

COZ086-089-092>099-190400-
...SOUTHEAST COLORADO...

CITY           SKY/WX    TMP DP  RH WIND       PRES   REMARKS
PUEBLO         FAIR      32  28  85 CALM      29.74S
LA JUNTA       FAIR      29  25  85 SE6       29.74F WCI  23
LAMAR          FAIR      24  21  88 SE3       29.74F
SPRINGFIELD      N/A     27  26  96 CALM      29.74F
$$




USA.gov is the U.S. government's official web portal to all federal, state and local government web resources and services.